Weather in Kulu

Turkey     39°05′20″N   33°04′51″E
temp.,
°C
wind,
m/s
gust,
m/s
humid.,
%
clouds,
%
prec.,
mm/h
press.,
hPa
HPBL,
m
15 may, sat
sat1500:00+17wnw612350 0.0 1013176
03:00+14nnw12515 0.0 101411
06:00+14n11570 0.0 101410
09:00+20ne01350 0.0 1013575
12:00+25s34255 0.0 10111630
15:00+27sse451836 0.0 10082431
18:00+27ese451726 0.0 10072593
21:00+21ese22281 0.0 100711
16 may, sun
sun1600:00+19wsw442985 0.0 100640
03:00+17nw3334100 0.0 100537
06:00+15wnw3554100 0.0 100570
09:00+20w4440100 0.0 1005652
12:00+23w77314 0.0 10052215
15:00+23wnw462595 0.0 10022591
18:00+18nnw10104371 0.8 1003693
21:00+13nw4873100 2.3 1008240
17 may, mon
mon1700:00+13w476977 0.0 1008368
03:00+11w247715 0.0 100998
06:00+11wnw23755 0.0 101064
09:00+16wnw45504 0.0 1010855
12:00+19w65353 0.0 10102008
15:00+21wnw77284 0.0 10102385
18:00+21wnw67305 0.0 10092238
21:00+17nnw33432 0.0 101124
18 may, tue
tue1800:00+15nnw22502 0.0 101212
03:00+14nw22540 0.0 101211
06:00+13w11570 0.0 101311
09:00+19sw12400 0.0 1013606
12:00+24s34295 0.0 10121903
15:00+27sw45227 0.0 10102435
18:00+27w56225 0.0 10092562
21:00+21wsw223483 0.0 101111
19 may, wed
wed1900:00+20w45380 0.0 101244
03:00+19nw45430 0.0 101146
06:00+17nw22530 0.0 101212
09:00+23s11370 0.0 1012563
12:00+27s46270 0.0 10102107
15:00+30sw57202 0.0 10072985
18:00+29w87190 0.0 10062213
21:00+23w46300 0.0 100757